Regional Weather Roundup
Issued by NWS

Home | Current Version | Previous Version | Graphics & Text | Print | Product List | Glossary Off
Versions: 1 2 3 4 5 6 7 8 9 10 11 12 13 14 15 16 17 18 19 20 21 22 23 24 25 26 27 28 29 30 31 32 33 34 35 36 37 38 39 40 41 42 43 44 45 46 47 48 49 50

000
ASUS43 KFSD 191410
RWRSD

WEATHER ROUNDUP FOR SOUTH DAKOTA
NATIONAL WEATHER SERVICE SIOUX FALLS SD
800 AM CST FRI DEC 19 2014

NOTE: "FAIR" INDICATES FEW OR NO CLOUDS BELOW 12,000 FEET WITH NO
SIGNIFICANT WEATHER AND/OR OBSTRUCTIONS TO VISIBILITY.


SDZ001>005-009-010-012>017-191500-
NORTHWEST AND NORTH CENTRAL SOUTH DAKOTA

CITY           SKY/WX    TMP DP  RH WIND       PRES   REMARKS
BUFFALO          N/A     27  19  72 W9        29.88S WCI  18
FAITH            N/A     28  21  75 SW6       29.96R WCI  22
MOBRIDGE       MOCLDY    21  18  88 SE7       29.97R WCI  12
$$

SDZ012>016-024>037-041>051-057-063-072>074-191500-
SOUTHWEST AND SOUTH CENTRAL SOUTH DAKOTA

CITY           SKY/WX    TMP DP  RH WIND       PRES   REMARKS
RAPID CTY ARPT CLEAR     23  16  74 CALM      29.98S
PIERRE         FOG       12   8  84 CALM      30.02R VSB 1/4
CUSTER         CLEAR     20  12  71 W5        29.97R WCI  13
ELLSWORTH AFB  PTCLDY    26  17  67 W5        29.97R WCI  21
PHILIP         MOCLDY    23  19  85 W8        30.01R WCI  14
PINE RIDGE     CLEAR     21  13  71 W3        30.02S
SPEARFISH      FAIR      32  18  55 CALM      29.98R
WINNER         FAIR      22  16  78 S9        30.03S WCI  12
$$

SDZ004>011-016>023-039-040-191500-
NORTHEAST SOUTH DAKOTA

CITY           SKY/WX    TMP DP  RH WIND       PRES   REMARKS
ABERDEEN       CLOUDY    27  25  92 S15       30.06S FOG     WCI  15
WATERTOWN      CLOUDY    27  25  92 S13       30.07S FOG     WCI  16
SISSETON         N/A     27  26  96 S10       30.09F WCI  17
$$

SDZ017-020-022-023-036>040-048>070-191500-
SOUTHEAST SOUTH DAKOTA

CITY           SKY/WX    TMP DP  RH WIND       PRES   REMARKS
SIOUX FALLS    CLOUDY    29  26  89 S10       30.14S WCI  20
HURON          CLOUDY    28  26  92 S12       30.09S FOG     WCI  18
CHAMBERLAIN    CLEAR     14  12  92 SE3       30.06S
MITCHELL       CLOUDY    29  27  92 S13       30.12R FOG     WCI  19
YANKTON        CLOUDY    28  25  86 S13       30.16R WCI  18
$$

ABBREVIATIONS USED IN REMARKS
   TC - TEMPERATURE IN CELSIUS
  WCI - WIND CHILL INDEX
   HX - HEAT INDEX
  VSB - VISIBILITY




USA.gov is the U.S. government's official web portal to all federal, state and local government web resources and services.